User: anonymous   Login
Location: Squamish
(49.7000°N, 123.1500°W)
Time: 00:23:01
(UTC-07:00)
Language:

NOAA 19 - Orbit

View from above orbital plane
View from above orbital plane
View from above satellite
View from above satellite

Ground track
Ground track

The orbit data is extracted from the following two-line orbital elements,

1 33591U 09005A   16183.54235241  .00000086  00000-0  71852-4 0  9991
2 33591  99.0409 140.4336 0013964 174.2176 185.9158 14.12085350381161
Epoch (UTC): 01 July 2016 13:00:59
Eccentricity: 0.0013964
inclination: 99.0409°
perigee height: 842 km
apogee height: 862 km
right ascension of ascending node: 140.4336°
argument of perigee: 174.2176°
revolutions per day: 14.12085350
mean anomaly at epoch: 185.9158°
orbit number at epoch: 38116

The dashed part of the orbit path shows where the satellite is in the earth's shadow,  

DLR